"2009-03-27 00:00:00",746259,12.65,47.47,3.21,0.719,-2.544,95.63734,-11.8,-10.53,92.6,0,108.9,13.89,-11.09,9.5
"2009-03-27 00:00:30",746260,12.43,47.43,3.078,0.694,-2.381,95.63734,-11.8,-10.52,92.6,0,108.9,13.89,-11.09,9.4
"2009-03-27 00:01:00",746261,12.19,48.65,2.618,0.707,-2.771,95.63734,-11.8,-10.53,92.6,0,108.9,13.89,-11.09,10.7
"2009-03-27 00:01:30",746262,12.01,48.11,2.488,0.833,-2.675,95.63734,-11.8,-10.52,92.7,0,108.9,13.89,-11.09,10.1
"2009-03-27 00:02:00",746263,11.05,45.03,2.684,0.821,-2.537,95.63734,-11.8,-10.53,92.7,0,108.9,13.89,-11.09,7.0
"2009-03-27 00:02:30",746264,11.03,45.77,2.485,0.774,-2.384,95.63734,-11.8,-10.52,92.7,0,108.9,13.89,-11.09,7.8
"2009-03-27 00:03:00",746265,11.06,45.68,1.992,0.975,-2.708,95.63734,-11.8,-10.53,92.8,0,108.8,13.89,-11.09,7.7
"2009-03-27 00:03:30",746266,10.77,45.61,2.93,0.956,-2.719,95.64104,-11.79,-10.51,92.8,0,108.9,13.89,-11.08,7.6
"2009-03-27 00:04:00",746267,9.64,43.21,3.454,1.161,-2.752,95.64474,-11.78,-10.51,92.8,0,108.9,13.89,-11.07,5.2
"2009-03-27 00:04:30",746268,9.67,43.07,3.951,1.423,-2.528,95.65013,-11.77,-10.5,92.9,0,108.9,13.89,-11.06,5.1
"2009-03-27 00:05:00",746269,7.952,38.37,3.859,0.691,-2.67,95.65382,-11.76,-10.49,92.9,0,108.9,13.89,-11.05,0.4
"2009-03-27 00:05:30",746270,7.821,39.04,4.156,0.86,-2.909,95.66859,-11.72,-10.47,92.9,0,108.9,13.89,-11.01,1.0
"2009-03-27 00:06:00",746271,8.51,42.23,4.468,0.88,-3.161,95.67143,-11.72,-10.47,93,0,108.9,13.89,-11.01,4.2
"2009-03-27 00:06:30",746272,11.4,46.78,2.226,1.191,-3.028,95.67143,-11.72,-10.47,93,0,108.9,13.89,-11.01,8.8
"2009-03-27 00:07:00",746273,14.09,47.48,3.258,0.798,-2.811,95.67143,-11.72,-10.45,93.1,0,108.9,13.89,-11.01,9.5
"2009-03-27 00:07:30",746274,14.87,47.95,3.169,0.762,-2.612,95.67143,-11.72,-10.45,93,0,108.9,13.89,-11.01,10.0
"2009-03-27 00:08:00",746275,14.64,47.21,3.027,0.709,-2.426,95.66802,-11.72,-10.46,93,0,108.9,13.89,-11.01,9.2
"2009-03-27 00:08:30",746276,14.56,46.81,3.046,0.794,-2.338,95.65297,-11.76,-10.48,92.9,0,108.9,13.9,-11.05,8.8
"2009-03-27 00:09:00",746277,15.16,47.46,3.134,0.674,-2.414,95.64587,-11.78,-10.48,92.8,0,108.9,13.9,-11.07,9.5
"2009-03-27 00:09:30",746278,15.73,48.92,2.923,0.74,-2.536,95.63848,-11.8,-10.49,92.7,0,108.9,13.9,-11.09,10.9
"2009-03-27 00:10:00",746279,15.32,51,2.562,0.731,-2.498,95.63734,-11.8,-10.51,92.7,0,108.9,13.89,-11.09,13.0
"2009-03-27 00:10:30",746280,15.14,50.07,3.487,0.675,-2.359,95.63734,-11.8,-10.51,92.6,0,108.9,13.89,-11.09,12.1
"2009-03-27 00:11:00",746281,14.85,50.27,2.574,0.737,-2.443,95.63734,-11.8,-10.51,92.6,0,108.9,13.9,-11.09,12.3
"2009-03-27 00:11:30",746282,14.08,51.01,3.4,0.777,-2.588,95.63734,-11.8,-10.51,92.6,0,108.9,13.9,-11.09,13.0
"2009-03-27 00:12:00",746283,14.33,50.97,3.022,0.916,-2.498,95.63734,-11.8,-10.5,92.6,0,108.9,13.9,-11.09,13.0
"2009-03-27 00:12:30",746284,15.41,50.58,1.528,0.843,-2.215,95.63734,-11.8,-10.52,92.6,0,108.9,13.9,-11.09,12.6
"2009-03-27 00:13:00",746285,14.49,51.23,3.167,0.88,-2.479,95.63734,-11.8,-10.53,92.6,0,108.9,13.9,-11.09,13.2
"2009-03-27 00:13:30",746286,14.87,51.5,3.145,1.205,-2.446,95.63734,-11.8,-10.52,92.6,0,108.9,13.9,-11.09,13.5
"2009-03-27 00:14:00",746287,15.57,52.15,3.07,0.762,-2.413,95.63734,-11.8,-10.53,92.6,0,108.9,13.9,-11.09,14.2
"2009-03-27 00:14:30",746288,15.66,51.79,1.792,0.73,-2.245,95.63734,-11.8,-10.53,92.7,0,108.9,13.9,-11.09,13.8
"2009-03-27 00:15:00",746289,15.7,50.94,2.938,0.741,-2.346,95.63734,-11.8,-10.52,92.6,0,108.9,13.9,-11.09,12.9
"2009-03-27 00:15:30",746290,15.16,51.86,3.569,0.809,-2.389,95.63734,-11.8,-10.52,92.6,0,108.9,13.9,-11.09,13.9
"2009-03-27 00:16:00",746291,15.25,51.45,3.672,0.691,-2.373,95.63734,-11.8,-10.53,92.6,0,108.9,13.9,-11.09,13.5
"2009-03-27 00:16:30",746292,14.7,52.41,3.454,0.729,-2.236,95.63734,-11.8,-10.54,92.6,0,108.9,13.9,-11.09,14.4
"2009-03-27 00:17:00",746293,14.74,52.84,2.782,0.607,-2.415,95.63734,-11.8,-10.53,92.6,0,108.9,13.89,-11.09,14.8
"2009-03-27 00:17:30",746294,14.58,53.62,2.547,0.714,-2.497,95.63734,-11.8,-10.52,92.6,0,108.9,13.89,-11.09,15.6
"2009-03-27 00:18:00",746295,14.51,51.93,3.508,0.619,-2.408,95.63734,-11.8,-10.53,92.6,0,108.9,13.89,-11.09,13.9
"2009-03-27 00:18:30",746296,14.52,54.29,2.778,0.797,-2.245,95.63734,-11.8,-10.52,92.6,0,108.9,13.89,-11.09,16.3
"2009-03-27 00:19:00",746297,14.09,53.95,3.246,0.89,-2.333,95.63734,-11.8,-10.53,92.7,0,108.8,13.89,-11.09,16.0
"2009-03-27 00:19:30",746298,13.73,53.17,3.358,0.808,-2.387,95.63734,-11.8,-10.52,92.7,0,108.9,13.89,-11.09,15.2
"2009-03-27 00:20:00",746299,13.16,52.11,4.27,0.864,-2.45,95.63734,-11.8,-10.53,92.7,0,108.9,13.89,-11.09,14.1
"2009-03-27 00:20:30",746300,14.21,52.61,2.694,0.81,-2.556,95.63734,-11.8,-10.53,92.7,0,108.9,13.89,-11.09,14.6
"2009-03-27 00:21:00",746301,13.72,50.11,3.749,0.705,-2.461,95.63734,-11.8,-10.51,92.7,0,108.9,13.89,-11.09,12.1
"2009-03-27 00:21:30",746302,13.41,48.17,3.129,0.671,-2.531,95.63734,-11.8,-10.5,92.7,0,108.9,13.89,-11.09,10.2
"2009-03-27 00:22:00",746303,13.05,47.31,3.444,0.9,-2.659,95.63762,-11.8,-10.52,92.7,0,108.9,13.9,-11.09,9.3
"2009-03-27 00:22:30",746304,13.34,49.36,2.835,0.726,-2.619,95.63762,-11.8,-10.52,92.8,0,108.9,13.9,-11.09,11.4
"2009-03-27 00:23:00",746305,13.62,49.27,2.743,0.633,-2.667,95.63762,-11.8,-10.51,92.8,0,108.9,13.9,-11.09,11.3
"2009-03-27 00:23:30",746306,13.2,52.6,3.422,0.843,-2.622,95.63734,-11.8,-10.51,92.8,0,108.9,13.9,-11.09,14.6
"2009-03-27 00:24:00",746307,13.37,51.86,3.165,0.752,-2.732,95.63817,-11.8,-10.51,92.8,0,108.9,13.9,-11.09,13.9
"2009-03-27 00:24:30",746308,13.63,50.79,2.37,0.747,-2.528,95.63789,-11.8,-10.52,92.8,0,108.9,13.9,-11.09,12.8
"2009-03-27 00:25:00",746309,13.86,50.23,2.437,0.635,-2.576,95.63817,-11.8,-10.51,92.8,0,108.8,13.9,-11.09,12.2
"2009-03-27 00:25:30",746310,13.85,50.47,2.718,0.7,-2.544,95.63789,-11.8,-10.51,92.8,0,108.9,13.9,-11.09,12.5
"2009-03-27 00:26:00",746311,14.16,49.7,3.55,0.764,-2.306,95.63817,-11.8,-10.5,92.8,0,108.9,13.9,-11.09,11.7
"2009-03-27 00:26:30",746312,14.87,51.01,3.66,0.491,-2.408,95.63844,-11.8,-10.5,92.8,0,108.9,13.9,-11.09,13.0
"2009-03-27 00:27:00",746313,14.71,50.36,3.948,0.614,-2.357,95.63789,-11.8,-10.53,92.8,0,108.9,13.9,-11.09,12.4
"2009-03-27 00:27:30",746314,14.62,50.8,3.916,0.607,-2.404,95.63898,-11.8,-10.52,92.8,0,108.9,13.9,-11.09,12.8
"2009-03-27 00:28:00",746315,14.28,49.73,3.908,0.73,-2.366,95.63844,-11.8,-10.5,92.9,0,108.9,13.9,-11.09,11.7
"2009-03-27 00:28:30",746316,15.13,48.63,4.216,0.56,-2.247,95.63844,-11.8,-10.5,92.9,0,108.9,13.9,-11.09,10.6
"2009-03-27 00:29:00",746317,15.02,50.7,3.198,0.819,-2.49,95.64061,-11.79,-10.52,92.9,0,108.8,13.9,-11.08,12.7
"2009-03-27 00:29:30",746318,14.87,48.33,3.891,0.691,-2.529,95.64251,-11.79,-10.49,92.9,0,108.9,13.9,-11.08,10.3
"2009-03-27 00:30:00",746319,13.92,44.03,3.72,1.043,-2.324,95.64414,-11.79,-10.5,93,0,108.9,13.9,-11.07,6.0
"2009-03-27 00:30:30",746320,13.3,43.56,3.159,1.266,-2.279,95.64442,-11.78,-10.51,93,0,108.9,13.9,-11.07,5.6
"2009-03-27 00:31:00",746321,14.83,45.53,3.237,1.046,-2.508,95.64278,-11.79,-10.5,93,0,108.8,13.9,-11.08,7.5
"2009-03-27 00:31:30",746322,14.84,44.81,3.86,0.947,-2.447,95.64604,-11.78,-10.51,93,0,108.9,13.9,-11.07,6.8
"2009-03-27 00:32:00",746323,15.08,45.27,3.722,1.009,-2.494,95.64211,-11.79,-10.52,92.9,0,108.9,13.9,-11.08,7.3
"2009-03-27 00:32:30",746324,15.27,47.29,4.873,0.837,-2.491,95.6265,-11.83,-10.54,92.9,0,108.9,13.9,-11.12,9.3
"2009-03-27 00:33:00",746325,15.62,45.89,3.565,0.601,-2.339,95.62041,-11.85,-10.52,92.9,0,108.9,13.9,-11.14,7.9
"2009-03-27 00:33:30",746326,16.67,46.53,3.604,0.619,-2.436,95.61665,-11.86,-10.52,92.9,0,108.9,13.9,-11.14,8.5
"2009-03-27 00:34:00",746327,16.23,46.27,4.157,0.888,-2.258,95.61739,-11.85,-10.55,92.9,0,108.9,13.9,-11.14,8.3
"2009-03-27 00:34:30",746328,17.16,48.12,4.235,0.711,-2.195,95.61794,-11.85,-10.56,92.8,0,108.9,13.9,-11.14,10.1
"2009-03-27 00:35:00",746329,16.19,48.81,4.081,1.068,-2.393,95.61467,-11.86,-10.56,92.8,0,108.8,13.9,-11.15,10.8
"2009-03-27 00:35:30",746330,16.66,46.61,4.082,0.95,-2.326,95.61183,-11.87,-10.57,92.8,0,108.9,13.9,-11.16,8.6
"2009-03-27 00:36:00",746331,18.14,46.83,3.655,0.701,-2.274,95.59331,-11.91,-10.59,92.8,0,108.9,13.9,-11.20,8.8
"2009-03-27 00:36:30",746332,17.79,46.13,3.599,1.171,-2.115,95.58693,-11.93,-10.61,92.8,0,108.9,13.9,-11.22,8.1
"2009-03-27 00:37:00",746333,18.09,47.19,3.508,0.425,-2.221,95.58468,-11.94,-10.63,92.7,0,108.9,13.9,-11.23,9.2
"2009-03-27 00:37:30",746334,17.71,47.4,3.561,0.565,-2.213,95.58494,-11.94,-10.62,92.7,0,108.9,13.9,-11.23,9.4
"2009-03-27 00:38:00",746335,17.79,47.73,3.471,0.622,-2.198,95.58602,-11.93,-10.65,92.6,0,108.9,13.9,-11.22,9.7
"2009-03-27 00:38:30",746336,17.94,48.95,3.553,0.557,-2.013,95.58819,-11.93,-10.64,92.6,0,108.9,13.9,-11.22,11.0
"2009-03-27 00:39:00",746337,17.76,49.53,3.229,0.526,-2.305,95.589,-11.93,-10.66,92.5,0,108.8,13.9,-11.22,11.5
"2009-03-27 00:39:30",746338,17.95,50.97,3.752,0.804,-2.145,95.59091,-11.92,-10.65,92.5,0,108.9,13.9,-11.21,13.0
"2009-03-27 00:40:00",746339,18.04,51.56,3.657,0.588,-2.116,95.59036,-11.92,-10.66,92.5,0,108.9,13.91,-11.21,13.6
"2009-03-27 00:40:30",746340,17.47,52.28,3.7,0.598,-2.009,95.59091,-11.92,-10.66,92.5,0,108.9,13.91,-11.21,14.3
"2009-03-27 00:41:00",746341,17.28,52.81,3.487,0.567,-2.11,95.59063,-11.92,-10.66,92.5,0,108.9,13.91,-11.21,14.8
"2009-03-27 00:41:30",746342,17.07,51.35,4.147,0.704,-1.955,95.59254,-11.92,-10.65,92.5,0,108.9,13.91,-11.21,13.3
"2009-03-27 00:42:00",746343,17.32,50.18,3.692,0.582,-2.211,95.5928,-11.92,-10.65,92.4,0,108.9,13.91,-11.21,12.2
"2009-03-27 00:42:30",746344,17.42,48.75,3.669,0.71,-2.096,95.592,-11.92,-10.65,92.4,0,108.9,13.91,-11.21,10.8
"2009-03-27 00:43:00",746345,17.11,50.26,3.969,0.549,-2.022,95.59393,-11.91,-10.64,92.4,0,108.8,13.91,-11.20,12.3
"2009-03-27 00:43:30",746346,17.27,50.26,3.592,0.686,-2.212,95.59534,-11.91,-10.63,92.4,0,108.9,13.91,-11.20,12.3
"2009-03-27 00:44:00",746347,17.13,50.72,3.69,0.684,-2.229,95.59563,-11.91,-10.64,92.4,0,108.9,13.91,-11.20,12.7
"2009-03-27 00:44:30",746348,17.42,51.46,3.431,0.647,-2.079,95.59848,-11.9,-10.64,92.4,0,108.9,13.91,-11.19,13.5
"2009-03-27 00:45:00",746349,17.92,50.89,3.542,0.5,-2.054,95.59703,-11.9,-10.65,92.4,0,108.8,13.91,-11.20,12.9
"2009-03-27 00:45:30",746350,17.46,50.64,4.098,0.649,-2.08,95.59731,-11.9,-10.64,92.4,0,108.9,13.91,-11.19,12.6
"2009-03-27 00:46:00",746351,17.98,50.23,4.06,0.567,-2.064,95.59759,-11.9,-10.64,92.4,0,108.9,13.91,-11.19,12.2
"2009-03-27 00:46:30",746352,18.08,50.89,4.334,0.558,-1.959,95.59531,-11.91,-10.65,92.4,0,108.9,13.91,-11.20,12.9
"2009-03-27 00:47:00",746353,17.69,52.03,3.623,0.526,-2.069,95.59531,-11.91,-10.63,92.4,0,108.8,13.91,-11.20,14.0
"2009-03-27 00:47:30",746354,17.63,50.42,3.908,0.618,-2.167,95.59447,-11.91,-10.64,92.4,0,108.8,13.91,-11.20,12.4
"2009-03-27 00:48:00",746355,18.06,51.8,3.191,0.733,-2.22,95.59416,-11.91,-10.65,92.4,0,108.8,13.91,-11.20,13.8
"2009-03-27 00:48:30",746356,18.04,50.8,3.555,0.628,-2.008,95.59416,-11.91,-10.63,92.4,0,108.9,13.91,-11.20,12.8
"2009-03-27 00:49:00",746357,18.25,51.57,3.262,0.644,-2.05,95.59389,-11.91,-10.65,92.4,0,108.9,13.91,-11.20,13.6
"2009-03-27 00:49:30",746358,17.92,51.43,3.149,0.763,-2.168,95.59444,-11.91,-10.64,92.4,0,108.9,13.91,-11.20,13.4
"2009-03-27 00:50:00",746359,17.67,50.32,4.252,0.566,-2.172,95.59661,-11.91,-10.63,92.3,0,108.9,13.91,-11.20,12.3
"2009-03-27 00:50:30",746360,17.63,51.37,3.475,0.662,-2.159,95.59715,-11.9,-10.63,92.4,0,108.9,13.91,-11.19,13.4
"2009-03-27 00:51:00",746361,18.37,52.35,2.915,0.667,-2.042,95.59525,-11.91,-10.62,92.4,0,108.8,13.91,-11.20,14.3
"2009-03-27 00:51:30",746362,17.65,53.62,3.677,0.746,-1.913,95.59689,-11.91,-10.64,92.4,0,108.8,13.91,-11.20,15.6
"2009-03-27 00:52:00",746363,16.08,54.25,3.683,0.7,-2.147,95.59634,-11.91,-10.62,92.4,0,108.8,13.91,-11.20,16.2
"2009-03-27 00:52:30",746364,17.4,51.81,3.732,0.815,-1.973,95.5986,-11.9,-10.62,92.4,0,108.8,13.91,-11.19,13.8
"2009-03-27 00:53:00",746365,16.72,52.01,4.005,0.808,-2.135,95.60225,-11.89,-10.62,92.5,0,108.8,13.91,-11.18,14.0
"2009-03-27 00:53:30",746366,16.77,51.92,3.605,0.784,-2.156,95.60595,-11.88,-10.61,92.6,0,108.8,13.91,-11.17,13.9
"2009-03-27 00:54:00",746367,17.41,53.07,3.979,0.781,-2.081,95.60847,-11.88,-10.61,92.6,0,108.8,13.91,-11.17,15.1
"2009-03-27 00:54:30",746368,16.82,53.24,3.113,0.847,-2.231,95.6096,-11.87,-10.63,92.6,0,108.8,13.91,-11.16,15.2
"2009-03-27 00:55:00",746369,17.52,52.36,3.375,0.787,-2.133,95.61492,-11.86,-10.61,92.7,0,108.8,13.91,-11.15,14.4
"2009-03-27 00:55:30",746370,16.87,52.53,4.743,1.039,-2.099,95.6232,-11.84,-10.61,92.7,0,108.8,13.91,-11.13,14.5
"2009-03-27 00:56:00",746371,17.12,53.57,3.288,0.953,-2.113,95.61729,-11.85,-10.6,92.8,0,108.8,13.91,-11.14,15.6
"2009-03-27 00:56:30",746372,16.91,52.21,3.843,0.759,-2.137,95.61924,-11.85,-10.6,92.7,0,108.8,13.91,-11.14,14.2
"2009-03-27 00:57:00",746373,16.64,53.85,3.877,0.818,-2.038,95.62524,-11.83,-10.62,92.7,0,108.8,13.91,-11.12,15.8
"2009-03-27 00:57:30",746374,16.94,53.37,3.516,0.611,-1.983,95.62864,-11.82,-10.59,92.8,0,108.8,13.91,-11.11,15.4
"2009-03-27 00:58:00",746375,16.58,53.87,3.391,0.732,-2.004,95.6312,-11.82,-10.59,92.8,0,108.8,13.91,-11.11,15.9
"2009-03-27 00:58:30",746376,16.27,53.58,3.194,0.733,-2.034,95.63341,-11.81,-10.59,92.8,0,108.8,13.91,-11.10,15.6
"2009-03-27 00:59:00",746377,16.12,54.61,3.081,0.564,-1.898,95.63342,-11.81,-10.6,92.8,0,108.8,13.92,-11.10,16.6
"2009-03-27 00:59:30",746378,16.12,54.33,3.228,0.704,-1.962,95.63233,-11.82,-10.58,92.8,0,108.8,13.91,-11.11,16.3
"2009-03-27 01:00:00",746379,15.59,52.5,3.797,0.699,-1.94,95.63287,-11.81,-10.58,92.8,0,108.8,13.91,-11.10,14.5
"2009-03-27 01:00:30",746380,15.08,50.51,3.827,0.72,-1.821,95.63451,-11.81,-10.57,92.7,0,108.8,13.92,-11.10,12.5
"2009-03-27 01:01:00",746381,14.69,49.73,3.572,0.65,-1.969,95.63287,-11.81,-10.57,92.7,0,108.8,13.92,-11.10,11.7
"2009-03-27 01:01:30",746382,14.67,47.99,2.895,0.804,-2.113,95.63454,-11.81,-10.57,92.7,0,108.8,13.92,-11.10,10.0
"2009-03-27 01:02:00",746383,14.46,48.89,3.06,0.766,-2.105,95.6357,-11.81,-10.56,92.7,0,108.8,13.92,-11.10,10.9
"2009-03-27 01:02:30",746384,14.66,49.54,2.687,0.807,-2.022,95.64444,-11.78,-10.56,92.7,0,108.8,13.92,-11.07,11.5
"2009-03-27 01:03:00",746385,14.63,48.58,3.575,0.745,-1.873,95.65726,-11.75,-10.54,92.6,0,108.8,13.92,-11.04,10.6
"2009-03-27 01:03:30",746386,14.67,49.32,2.106,0.821,-2.231,95.66806,-11.72,-10.53,92.6,0,108.8,13.92,-11.01,11.3
"2009-03-27 01:04:00",746387,14.21,47.01,3.106,0.839,-2.143,95.66724,-11.73,-10.53,92.6,0,108.8,13.92,-11.02,9.0
"2009-03-27 01:04:30",746388,13.96,47.21,3.262,0.795,-2.248,95.66887,-11.72,-10.5,92.7,0,108.8,13.92,-11.01,9.2
"2009-03-27 01:05:00",746389,14.2,47.24,1.983,0.752,-2.216,95.66697,-11.73,-10.5,92.7,0,108.8,13.92,-11.02,9.2
"2009-03-27 01:05:30",746390,13.91,47.14,3.129,0.798,-2.39,95.66671,-11.73,-10.49,92.7,0,108.8,13.92,-11.02,9.1
"2009-03-27 01:06:00",746391,14.1,46.48,3.149,0.732,-2.204,95.66943,-11.72,-10.47,92.7,0,108.8,13.92,-11.01,8.5
"2009-03-27 01:06:30",746392,13.93,46.66,3.385,0.793,-2.26,95.6695,-11.72,-10.47,92.7,0,108.8,13.92,-11.01,8.7
"2009-03-27 01:07:00",746393,13.82,46.77,3.36,0.959,-2.162,95.67086,-11.72,-10.46,92.7,0,108.8,13.92,-11.01,8.8
"2009-03-27 01:07:30",746394,14.59,46.6,3.146,0.903,-2.237,95.66807,-11.72,-10.45,92.8,0,108.8,13.92,-11.01,8.6
"2009-03-27 01:08:00",746395,13.84,46.32,3.471,0.856,-2.234,95.66806,-11.72,-10.45,92.8,0,108.8,13.91,-11.01,8.3
"2009-03-27 01:08:30",746396,13.14,45.83,3.864,1.315,-2.205,95.66806,-11.72,-10.45,92.8,0,108.8,13.91,-11.01,7.8
"2009-03-27 01:09:00",746397,13.4,48.36,2.823,0.811,-2.425,95.66941,-11.72,-10.45,92.8,0,108.8,13.91,-11.01,10.4
"2009-03-27 01:09:30",746398,13.57,45.77,2.404,0.89,-2.215,95.66859,-11.72,-10.45,92.8,0,108.8,13.91,-11.01,7.8
"2009-03-27 01:10:00",746399,14.39,45.49,3.884,1.022,-2.298,95.66887,-11.72,-10.47,92.8,0,108.8,13.91,-11.01,7.5
"2009-03-27 01:10:30",746400,14.49,45.89,3.495,1.1,-2.468,95.66859,-11.72,-10.46,92.8,0,108.8,13.91,-11.01,7.9
"2009-03-27 01:11:00",746401,14,47.96,2.536,1.116,-2.224,95.66692,-11.73,-10.47,92.8,0,108.8,13.91,-11.02,10.0
"2009-03-27 01:11:30",746402,14.06,45.78,2.922,1.297,-2.282,95.6572,-11.75,-10.47,92.8,0,108.8,13.91,-11.04,7.8
"2009-03-27 01:12:00",746403,15.26,48.56,2.987,0.85,-2.283,95.64672,-11.78,-10.48,92.7,0,108.8,13.91,-11.07,10.6
"2009-03-27 01:12:30",746404,14.26,46.53,3.126,0.866,-2.325,95.6396,-11.8,-10.51,92.7,0,108.8,13.91,-11.09,8.5
"2009-03-27 01:13:00",746405,13.57,46.97,3.585,1.417,-2.414,95.63675,-11.8,-10.5,92.7,0,108.8,13.91,-11.09,9.0
"2009-03-27 01:13:30",746406,13.81,46.3,2.953,1.695,-2.453,95.63532,-11.81,-10.53,92.7,0,108.8,13.92,-11.10,8.3
"2009-03-27 01:14:00",746407,14.49,47.64,2.636,0.864,-2.496,95.63586,-11.81,-10.51,92.7,0,108.8,13.92,-11.10,9.6
"2009-03-27 01:14:30",746408,14.65,45.91,3.377,1.074,-2.373,95.63559,-11.81,-10.52,92.7,0,108.8,13.92,-11.10,7.9
"2009-03-27 01:15:00",746409,14.26,47.17,3.365,0.642,-2.112,95.63532,-11.81,-10.52,92.8,0,108.8,13.92,-11.10,9.2
"2009-03-27 01:15:30",746410,14.31,47.67,3.665,1.182,-2.433,95.63586,-11.81,-10.53,92.8,0,108.8,13.92,-11.10,9.7
"2009-03-27 01:16:00",746411,15.29,47.48,3.022,0.788,-2.314,95.63586,-11.81,-10.53,92.8,0,108.8,13.92,-11.10,9.5
"2009-03-27 01:16:30",746412,13.91,47.08,3.604,1.082,-2.385,95.63559,-11.81,-10.53,92.8,0,108.8,13.93,-11.10,9.1
"2009-03-27 01:17:00",746413,15.34,49.47,3.102,0.914,-2.192,95.63586,-11.81,-10.55,92.8,0,108.8,13.93,-11.10,11.5
"2009-03-27 01:17:30",746414,15.11,49.02,3.705,1.185,-2.353,95.63586,-11.81,-10.54,92.8,0,108.8,13.93,-11.10,11.0
"2009-03-27 01:18:00",746415,14.89,48.78,3.614,0.77,-2.423,95.63586,-11.81,-10.53,92.8,0,108.8,13.93,-11.10,10.8
"2009-03-27 01:18:30",746416,15.49,46.98,3.546,1.355,-2.202,95.63586,-11.81,-10.53,92.8,0,108.8,13.93,-11.10,9.0
"2009-03-27 01:19:00",746417,15.4,47.57,1.808,0.87,-2.32,95.63586,-11.81,-10.55,92.8,0,108.8,13.93,-11.10,9.6
"2009-03-27 01:19:30",746418,14.52,46.51,3.819,1.251,-2.378,95.63586,-11.81,-10.56,92.8,0,108.8,13.93,-11.10,8.5
"2009-03-27 01:20:00",746419,15.47,47.71,3.309,0.932,-2.412,95.63387,-11.81,-10.56,92.7,0,108.8,13.92,-11.10,9.7
"2009-03-27 01:20:30",746420,15.11,48.43,2.542,0.815,-2.416,95.62251,-11.84,-10.56,92.7,0,108.8,13.93,-11.13,10.4
"2009-03-27 01:21:00",746421,15.53,48.92,2.677,0.749,-2.331,95.61484,-11.86,-10.59,92.7,0,108.8,13.93,-11.15,10.9
"2009-03-27 01:21:30",746422,15.93,49.3,2.729,0.752,-2.477,95.60831,-11.88,-10.59,92.6,0,108.8,13.93,-11.17,11.3
"2009-03-27 01:22:00",746423,16.35,49.36,2.825,0.765,-2.15,95.60319,-11.89,-10.59,92.6,0,108.8,13.93,-11.18,11.4
"2009-03-27 01:22:30",746424,16.7,48.61,2.677,0.735,-2.261,95.60178,-11.89,-10.6,92.5,0,108.8,13.93,-11.18,10.6
"2009-03-27 01:23:00",746425,16.45,50.6,2.282,0.769,-2.106,95.60206,-11.89,-10.6,92.5,0,108.8,13.93,-11.18,12.6
"2009-03-27 01:23:30",746426,16.21,51.74,2.849,0.769,-2.349,95.60178,-11.89,-10.6,92.5,0,108.8,13.93,-11.18,13.7
"2009-03-27 01:24:00",746427,16.29,50.34,2.766,0.771,-2.296,95.60178,-11.89,-10.61,92.5,0,108.8,13.93,-11.18,12.3
"2009-03-27 01:24:30",746428,16.59,49.77,2.335,0.735,-2.273,95.60178,-11.89,-10.62,92.4,0,108.8,13.93,-11.18,11.8
"2009-03-27 01:25:00",746429,16.93,50.19,2.331,0.474,-2.151,95.60178,-11.89,-10.61,92.4,0,108.8,13.92,-11.18,12.2
"2009-03-27 01:25:30",746430,16.48,49.74,3.477,0.461,-2.184,95.60178,-11.89,-10.6,92.3,0,108.8,13.92,-11.18,11.7
"2009-03-27 01:26:00",746431,16.04,47.71,3.861,0.597,-1.98,95.60178,-11.89,-10.62,92.3,0,108.8,13.92,-11.18,9.7
"2009-03-27 01:26:30",746432,15.58,47.67,3.33,0.599,-2.066,95.60178,-11.89,-10.63,92.3,0,108.8,13.92,-11.18,9.7
"2009-03-27 01:27:00",746433,15.44,49.83,2.383,0.673,-2.142,95.60178,-11.89,-10.61,92.3,0,108.8,13.92,-11.18,11.8
"2009-03-27 01:27:30",746434,15.28,48.12,3.691,0.438,-2.177,95.60178,-11.89,-10.6,92.3,0,108.9,13.92,-11.18,10.1
"2009-03-27 01:28:00",746435,15.18,48.56,3.527,0.509,-2.167,95.60206,-11.89,-10.6,92.3,0,108.8,13.91,-11.18,10.6
"2009-03-27 01:28:30",746436,14.95,48.07,4.068,0.609,-2.26,95.60178,-11.89,-10.61,92.3,0,108.8,13.92,-11.18,10.1
"2009-03-27 01:29:00",746437,14.7,47.82,2.717,0.612,-2.23,95.60319,-11.89,-10.61,92.4,0,108.8,13.92,-11.18,9.8
"2009-03-27 01:29:30",746438,14.77,47.42,3.525,0.569,-2.249,95.60632,-11.88,-10.6,92.4,0,108.8,13.92,-11.17,9.4
"2009-03-27 01:30:00",746439,14.29,45.95,2.986,0.65,-2.213,95.6086,-11.88,-10.6,92.4,0,108.8,13.92,-11.17,8.0
"2009-03-27 01:30:30",746440,14.67,46.87,3.444,0.53,-2.204,95.61285,-11.86,-10.6,92.4,0,108.8,13.93,-11.15,8.9
"2009-03-27 01:31:00",746441,14.58,47.14,3.797,0.404,-2.112,95.61825,-11.85,-10.58,92.4,0,108.8,13.93,-11.14,9.1
"2009-03-27 01:31:30",746442,14.3,47.86,3.172,0.606,-2.218,95.62421,-11.84,-10.57,92.5,0,108.8,13.93,-11.13,9.9
"2009-03-27 01:32:00",746443,14.09,46.43,3.669,0.647,-2.184,95.62962,-11.82,-10.56,92.5,0,108.8,13.93,-11.11,8.4
"2009-03-27 01:32:30",746444,13.99,47.91,3.648,0.625,-2.333,95.63473,-11.81,-10.59,92.5,0,108.8,13.93,-11.10,9.9
"2009-03-27 01:33:00",746445,14.2,48.12,3.416,0.361,-2.064,95.63586,-11.81,-10.57,92.5,0,108.8,13.93,-11.10,10.1
"2009-03-27 01:33:30",746446,13.78,47.29,4.131,0.511,-2.178,95.63586,-11.81,-10.57,92.5,0,108.8,13.93,-11.10,9.3
"2009-03-27 01:34:00",746447,13.87,48.41,4.362,0.566,-2.232,95.63586,-11.81,-10.56,92.6,0,108.8,13.93,-11.10,10.4
"2009-03-27 01:34:30",746448,13.88,49.33,3.811,0.517,-2.175,95.63586,-11.81,-10.56,92.6,0,108.8,13.93,-11.10,11.3
"2009-03-27 01:35:00",746449,13.77,49.79,3.196,0.588,-2.124,95.63586,-11.81,-10.54,92.6,0,108.8,13.93,-11.10,11.8
"2009-03-27 01:35:30",746450,13.73,50.71,3.952,0.599,-2.168,95.63586,-11.81,-10.56,92.6,0,108.9,13.93,-11.10,12.7
"2009-03-27 01:36:00",746451,13.47,51.86,4.103,0.369,-2.247,95.63586,-11.81,-10.54,92.6,0,108.8,13.93,-11.10,13.9
"2009-03-27 01:36:30",746452,13.23,53.48,3.475,0.71,-2.133,95.63586,-11.81,-10.55,92.6,0,108.8,13.93,-11.10,15.5
"2009-03-27 01:37:00",746453,13.41,52.36,3.337,0.446,-2.233,95.63586,-11.81,-10.54,92.7,0,108.8,13.93,-11.10,14.4
"2009-03-27 01:37:30",746454,13.22,52.65,3.746,0.548,-2.322,95.63643,-11.8,-10.55,92.7,0,108.8,13.93,-11.09,14.7
"2009-03-27 01:38:00",746455,13.17,53.11,3.997,0.641,-2.333,95.63643,-11.8,-10.53,92.7,0,108.8,13.93,-11.09,15.1
"2009-03-27 01:38:30",746456,13.42,54.08,4.053,0.567,-2.23,95.63814,-11.8,-10.54,92.7,0,108.8,13.93,-11.09,16.1
"2009-03-27 01:39:00",746457,13.58,54.65,3.628,0.544,-2.034,95.63785,-11.8,-10.51,92.7,0,108.8,13.93,-11.09,16.7
"2009-03-27 01:39:30",746458,13.57,56.05,3.638,0.557,-2.283,95.63785,-11.8,-10.52,92.7,0,108.9,13.93,-11.09,18.0
"2009-03-27 01:40:00",746459,13.36,55.73,3.681,0.693,-2.323,95.64013,-11.8,-10.51,92.8,0,108.8,13.93,-11.09,17.7
"2009-03-27 01:40:30",746460,13.17,55.84,3.806,0.547,-2.235,95.6404,-11.79,-10.52,92.8,0,108.8,13.93,-11.08,17.8
"2009-03-27 01:41:00",746461,12.84,59.23,3.545,0.497,-2.067,95.64439,-11.78,-10.5,92.8,0,108.8,13.93,-11.07,21.2
"2009-03-27 01:41:30",746462,13.23,56.25,3.935,0.52,-2.147,95.64524,-11.78,-10.49,92.8,0,108.8,13.93,-11.07,18.2
"2009-03-27 01:42:00",746463,12.76,57.63,3.802,0.674,-2.31,95.6478,-11.78,-10.49,92.9,0,108.8,13.93,-11.07,19.6
"2009-03-27 01:42:30",746464,12.45,60.57,3.495,0.56,-2.135,95.64893,-11.77,-10.49,92.9,0,108.8,13.93,-11.06,22.6
"2009-03-27 01:43:00",746465,12.45,59.43,3.268,0.678,-2.057,95.65859,-11.75,-10.5,92.9,0,108.8,13.93,-11.04,21.4
"2009-03-27 01:43:30",746466,11.53,59.19,4.873,0.561,-2.368,95.6657,-11.73,-10.48,92.9,0,108.8,13.92,-11.02,21.2
"2009-03-27 01:44:00",746467,12.08,57.82,4.467,0.553,-2.355,95.66939,-11.72,-10.46,92.9,0,108.8,13.92,-11.01,19.8
"2009-03-27 01:44:30",746468,11.86,50.56,4.743,0.572,-2.258,95.66995,-11.72,-10.47,93,0,108.8,13.92,-11.01,12.6
"2009-03-27 01:45:00",746469,12.2,55.22,3.742,0.535,-2.272,95.66995,-11.72,-10.45,93,0,108.8,13.92,-11.01,17.2
"2009-03-27 01:45:30",746470,11.48,56.18,4.414,0.555,-2.46,95.66995,-11.72,-10.46,93,0,108.9,13.92,-11.01,18.2
"2009-03-27 01:46:00",746471,11.27,58.1,4.633,0.606,-2.396,95.66995,-11.72,-10.44,93,0,108.8,13.92,-11.01,20.1